When you browse on this site, cookies collect data to enhance your experience and personalize the content and advertising you see.
Visit our Privacy Policy to learn more. By continuing to use the site, you agree to this use of cookies and data.
  • In Spain
  • List of Countries
  • For 7 days
  • Water Temperature
  • Satellite Maps
  • Weather Map
  • Weather Widgets
  • user-avatar
    Login

    Hourly Weather Taldy Kurgan

    Today, 17 June, Monday

    Time Temperature Precipitation Wind Pressure Humidity
    00:00 +16°C° 0 mm 3 mps 711 mmHg 51%
    01:00 +16°C° 0 mm 3 mps 710 mmHg 49%
    02:00 +16°C° 0 mm 3 mps 710 mmHg 48%
    03:00 +16°C° 0 mm 2 mps 710 mmHg 49%
    04:00 +17°C° 0 mm 2 mps 710 mmHg 50%
    05:00 +17°C° 0 mm 2 mps 710 mmHg 50%
    06:00 +19°C° 0 mm 2 mps 710 mmHg 45%
    07:00 +23°C° 0 mm 1 mps 711 mmHg 40%
    08:00 +25°C° 0 mm 1 mps 711 mmHg 36%
    09:00 +26°C° 0 mm 2 mps 711 mmHg 34%
    10:00 +27°C° 0 mm 3 mps 711 mmHg 32%
    11:00 +28°C° 0 mm 4 mps 711 mmHg 31%
    12:00 +29°C° 0 mm 4 mps 710 mmHg 29%
    13:00 +30°C° 0 mm 4 mps 710 mmHg 28%
    14:00 +30°C° 0 mm 4 mps 710 mmHg 27%
    15:00 +30°C° 0 mm 4 mps 710 mmHg 28%
    16:00 +30°C° 0 mm 4 mps 710 mmHg 28%
    17:00 +29°C° 0 mm 4 mps 709 mmHg 29%
    18:00 +27°C° 0 mm 3 mps 709 mmHg 31%
    19:00 +25°C° 0 mm 3 mps 709 mmHg 34%
    20:00 +23°C° 0 mm 2 mps 709 mmHg 36%
    21:00 +21°C° 0 mm 2 mps 709 mmHg 39%
    22:00 +20°C° 0 mm 2 mps 709 mmHg 41%
    23:00 +19°C° 0 mm 2 mps 709 mmHg 44%

    Tomorrow, 18 June, Tuesday

    Time Temperature Precipitation Wind Pressure Humidity
    00:00 +19°C° 0 mm 2 mps 708 mmHg 44%
    01:00 +18°C° 0 mm 2 mps 708 mmHg 44%
    02:00 +19°C° 0 mm 1 mps 707 mmHg 45%
    03:00 +19°C° 0 mm 1 mps 707 mmHg 46%
    04:00 +20°C° 0 mm 1 mps 707 mmHg 48%
    05:00 +20°C° 0 mm 1 mps 707 mmHg 50%
    06:00 +23°C° 0 mm 2 mps 708 mmHg 44%
    07:00 +25°C° 0 mm 2 mps 708 mmHg 39%
    08:00 +28°C° 0 mm 2 mps 708 mmHg 34%
    09:00 +29°C° 0 mm 3 mps 708 mmHg 31%
    10:00 +30°C° 0 mm 4 mps 708 mmHg 29%
    11:00 +32°C° 0 mm 5 mps 708 mmHg 26%
    12:00 +32°C° 0.1 mm 4 mps 708 mmHg 28%
    13:00 +30°C° 0.1 mm 4 mps 708 mmHg 30%
    14:00 +30°C° 0.1 mm 4 mps 708 mmHg 31%
    15:00 +30°C° 0.1 mm 4 mps 708 mmHg 32%
    16:00 +30°C° 0.1 mm 4 mps 708 mmHg 32%
    17:00 +30°C° 0.1 mm 3 mps 708 mmHg 32%
    18:00 +27°C° 0 mm 3 mps 708 mmHg 35%
    19:00 +25°C° 0 mm 3 mps 708 mmHg 38%
    20:00 +22°C° 0 mm 3 mps 708 mmHg 41%
    21:00 +21°C° 0 mm 2 mps 708 mmHg 43%
    22:00 +20°C° 0 mm 2 mps 709 mmHg 45%
    23:00 +19°C° 0 mm 2 mps 709 mmHg 47%

    Day after tomorrow, 19 June, Wednesday

    Time Temperature Precipitation Wind Pressure Humidity
    00:00 +19°C° 0 mm 2 mps 709 mmHg 46%
    01:00 +20°C° 0 mm 2 mps 709 mmHg 45%
    02:00 +20°C° 0 mm 2 mps 709 mmHg 44%
    03:00 +20°C° 0 mm 2 mps 709 mmHg 46%
    04:00 +19°C° 0 mm 2 mps 709 mmHg 48%
    05:00 +19°C° 0 mm 2 mps 709 mmHg 50%
    06:00 +21°C° 0 mm 2 mps 709 mmHg 45%
    07:00 +24°C° 0 mm 2 mps 709 mmHg 40%
    08:00 +27°C° 0 mm 1 mps 710 mmHg 36%
    09:00 +28°C° 0 mm 2 mps 710 mmHg 32%
    10:00 +29°C° 0 mm 2 mps 710 mmHg 29%
    11:00 +30°C° 0 mm 3 mps 710 mmHg 25%
    12:00 +31°C° 0 mm 3 mps 709 mmHg 25%
    13:00 +31°C° 0 mm 3 mps 709 mmHg 24%
    14:00 +32°C° 0 mm 4 mps 709 mmHg 24%
    15:00 +32°C° 0 mm 4 mps 709 mmHg 25%
    16:00 +32°C° 0 mm 5 mps 709 mmHg 26%
    17:00 +30°C° 0 mm 6 mps 709 mmHg 27%
    18:00 +28°C° 0 mm 5 mps 709 mmHg 30%
    19:00 +26°C° 0 mm 5 mps 709 mmHg 32%
    20:00 +23°C° 0 mm 5 mps 710 mmHg 35%
    21:00 +22°C° 0 mm 4 mps 710 mmHg 36%
    22:00 +21°C° 0 mm 3 mps 710 mmHg 38%
    23:00 +20°C° 0 mm 2 mps 710 mmHg 39%

    20 June, Thursday

    Time Temperature Precipitation Wind Pressure Humidity
    00:00 +20°C° 0 mm 2 mps 710 mmHg 42%
    01:00 +20°C° 0 mm 1 mps 710 mmHg 46%
    02:00 +20°C° 0 mm 1 mps 710 mmHg 49%
    03:00 +19°C° 0 mm 1 mps 710 mmHg 52%
    04:00 +19°C° 0 mm 1 mps 710 mmHg 55%
    05:00 +18°C° 0 mm 2 mps 710 mmHg 57%
    06:00 +21°C° 0 mm 1 mps 711 mmHg 51%
    07:00 +23°C° 0 mm 1 mps 711 mmHg 44%
    08:00 +23°C° 0 mm 0 mps 711 mmHg 38%
    09:00 +27°C° 0 mm 1 mps 711 mmHg 35%
    10:00 +28°C° 0 mm 2 mps 711 mmHg 31%
    11:00 +29°C° 0 mm 3 mps 711 mmHg 28%
    12:00 +30°C° 0 mm 3 mps 711 mmHg 27%
    13:00 +31°C° 0 mm 3 mps 711 mmHg 26%
    14:00 +33°C° 0 mm 3 mps 710 mmHg 24%
    15:00 +32°C° 0 mm 4 mps 710 mmHg 25%
    16:00 +32°C° 0 mm 4 mps 710 mmHg 27%
    17:00 +30°C° 0 mm 4 mps 710 mmHg 28%
    18:00 +29°C° 0 mm 4 mps 710 mmHg 30%
    19:00 +27°C° 0 mm 4 mps 710 mmHg 33%
    20:00 +25°C° 0 mm 4 mps 710 mmHg 35%
    21:00 +23°C° 0 mm 4 mps 710 mmHg 37%
    22:00 +22°C° 0 mm 3 mps 710 mmHg 40%
    23:00 +21°C° 0 mm 3 mps 710 mmHg 42%

    21 June, Friday

    Time Temperature Precipitation Wind Pressure Humidity
    00:00 +20°C° 0 mm 2 mps 709 mmHg 45%
    01:00 +20°C° 0 mm 2 mps 709 mmHg 48%
    02:00 +19°C° 0 mm 2 mps 709 mmHg 51%
    03:00 +19°C° 0 mm 2 mps 709 mmHg 52%
    04:00 +19°C° 0 mm 2 mps 709 mmHg 53%
    05:00 +20°C° 0 mm 2 mps 709 mmHg 54%
    06:00 +23°C° 0 mm 2 mps 710 mmHg 47%
    07:00 +26°C° 0 mm 2 mps 710 mmHg 40%
    08:00 +29°C° 0 mm 1 mps 710 mmHg 34%
    09:00 +30°C° 0 mm 2 mps 710 mmHg 29%
    10:00 +31°C° 0 mm 2 mps 710 mmHg 24%
    11:00 +33°C° 0 mm 3 mps 710 mmHg 20%
    12:00 +34°C° 0 mm 3 mps 710 mmHg 19%
    13:00 +34°C° 0 mm 3 mps 710 mmHg 18%
    14:00 +35°C° 0 mm 4 mps 710 mmHg 17%
    15:00 +34°C° 0 mm 4 mps 709 mmHg 18%
    16:00 +34°C° 0 mm 5 mps 709 mmHg 19%
    17:00 +33°C° 0 mm 6 mps 709 mmHg 20%
    18:00 +30°C° 0 mm 5 mps 709 mmHg 23%
    19:00 +27°C° 0 mm 5 mps 709 mmHg 26%
    20:00 +25°C° 0 mm 4 mps 709 mmHg 29%
    21:00 +23°C° 0 mm 4 mps 709 mmHg 34%
    22:00 +22°C° 0 mm 3 mps 708 mmHg 38%
    23:00 +20°C° 0 mm 2 mps 708 mmHg 43%

    22 June, Saturday

    Time Temperature Precipitation Wind Pressure Humidity
    00:00 +20°C° 0 mm 2 mps 708 mmHg 44%
    01:00 +20°C° 0 mm 2 mps 708 mmHg 45%
    02:00 +20°C° 0 mm 2 mps 708 mmHg 46%
    03:00 +21°C° 0 mm 2 mps 708 mmHg 46%
    04:00 +21°C° 0 mm 2 mps 708 mmHg 46%
    05:00 +21°C° 0 mm 2 mps 708 mmHg 45%
    06:00 +25°C° 0 mm 2 mps 708 mmHg 41%
    07:00 +27°C° 0 mm 2 mps 709 mmHg 36%
    08:00 +29°C° 0 mm 2 mps 709 mmHg 31%
    09:00 +30°C° 0 mm 3 mps 709 mmHg 27%
    10:00 +33°C° 0 mm 3 mps 709 mmHg 24%
    11:00 +34°C° 0 mm 3 mps 709 mmHg 20%
    12:00 +35°C° 0 mm 3 mps 709 mmHg 19%
    13:00 +35°C° 0 mm 3 mps 709 mmHg 19%
    14:00 +36°C° 0 mm 3 mps 709 mmHg 18%
    15:00 +35°C° 0 mm 4 mps 709 mmHg 19%
    16:00 +35°C° 0 mm 5 mps 708 mmHg 20%
    17:00 +34°C° 0 mm 6 mps 708 mmHg 21%
    18:00 +32°C° 0 mm 5 mps 708 mmHg 25%
    19:00 +28°C° 0 mm 4 mps 708 mmHg 28%
    20:00 +26°C° 0 mm 4 mps 708 mmHg 31%
    21:00 +25°C° 0 mm 3 mps 708 mmHg 32%
    22:00 +25°C° 0 mm 3 mps 708 mmHg 34%
    23:00 +24°C° 0 mm 2 mps 708 mmHg 35%
    Show more